Theta_e
348 347 346 346 346 345 344 344 345 345 344 343 341 340 341 342 343 341 338 337 339 337 333 329 327 330 336 340 341 342 342 342 341 340 340 341 342 341 342 342 342 342 342 342 342 342 341 340 341 342 343 344 344 344 344 345 345 345 345 345 344 344 344 344 344 344 343 344 344 345 346 346 345 345 345 344 344 343 342 341 334 324 326 333 336
347 347 347 346 346 346 345 344 344 345 345 343 340 341 342 342 343 343 341 339 337 333 328 326 329 336 340 342 343 344 343 343 342 341 341 341 341 341 342 342 341 342 342 342 343 343 341 340 340 341 342 343 343 344 344 344 344 345 345 344 345 344 344 343 343 343 343 343 344 344 345 346 345 345 344 344 343 342 342 339 330 325 333 340 340
346 346 347 346 346 345 344 343 343 344 344 343 342 342 342 343 343 342 340 336 332 328 328 331 335 339 341 343 344 343 343 343 343 342 342 341 340 339 340 340 341 341 342 342 342 343 343 341 341 342 343 343 343 344 344 344 344 344 344 343 344 345 344 343 343 343 343 344 344 344 344 345 345 345 344 344 343 343 341 338 330 328 336 341 341
346 346 346 346 345 343 343 342 341 342 343 343 343 343 344 343 342 339 335 332 331 331 334 337 338 340 341 342 343 343 343 343 343 343 343 343 342 342 341 341 341 342 343 343 342 343 344 342 342 342 343 344 344 343 344 344 344 343 343 342 343 344 343 343 343 344 344 344 345 344 345 345 345 345 344 343 343 342 341 339 333 330 336 340 341
345 344 345 345 344 343 344 343 342 342 343 343 344 344 343 341 339 336 334 335 335 336 338 339 339 340 341 342 343 344 344 343 343 343 342 343 343 343 343 342 343 343 343 344 344 343 342 342 343 343 343 344 344 343 344 344 344 344 343 343 344 343 342 343 344 344 344 343 344 344 345 345 345 344 343 343 343 342 341 340 336 331 335 340 340
345 345 345 345 344 345 345 344 343 343 344 342 342 341 339 337 336 335 336 337 336 337 339 339 340 342 342 343 344 343 343 343 343 343 343 342 341 342 342 343 344 343 344 345 343 340 339 341 342 342 343 344 344 343 343 343 343 343 343 343 343 343 343 344 344 344 343 342 343 343 344 345 344 343 343 342 342 342 341 339 336 332 334 339 340
346 346 346 345 345 346 345 345 343 342 341 340 339 338 337 335 334 334 336 337 338 339 340 340 342 343 343 343 343 342 342 342 343 343 343 342 341 341 343 343 344 344 344 345 342 339 339 342 342 341 343 344 343 343 343 343 343 343 342 342 343 343 343 343 343 343 342 342 342 342 343 344 343 342 342 341 341 340 339 338 337 333 335 339 341
345 347 346 346 346 345 345 344 341 340 340 340 338 337 335 333 332 334 336 338 340 341 341 342 343 343 342 342 342 342 342 343 343 343 343 343 342 342 344 344 344 344 345 344 343 340 341 343 342 341 342 342 342 343 343 343 343 343 342 341 342 342 342 342 342 342 342 342 342 342 342 343 342 341 340 339 339 339 338 338 336 333 335 339 341
345 346 346 346 346 345 345 343 341 340 340 339 336 333 331 329 331 334 337 340 341 342 341 342 342 342 342 342 342 341 342 343 344 343 343 343 343 343 344 344 343 344 344 344 343 341 342 343 343 342 342 342 342 343 343 343 344 343 342 341 342 342 342 341 341 342 341 342 342 342 342 342 341 340 339 338 338 338 338 338 334 332 336 339 341
345 346 346 346 345 344 345 343 341 338 336 334 331 330 328 329 334 337 340 342 342 342 341 341 341 341 341 341 341 341 342 343 344 343 343 343 342 342 343 344 343 343 343 343 342 340 341 342 342 342 342 343 343 343 343 343 344 343 343 343 342 341 342 341 341 341 341 342 342 341 340 337 335 336 337 337 337 337 338 336 333 334 337 339 340
344 345 346 346 346 345 344 340 335 333 332 332 330 330 330 333 338 341 342 343 343 342 342 341 341 340 340 340 340 340 341 342 342 342 343 343 342 341 342 343 344 343 343 343 341 340 340 340 341 341 342 342 342 344 343 342 343 343 343 343 343 341 341 341 341 341 341 342 342 341 335 331 332 334 336 336 337 338 336 335 335 336 338 339 340
345 346 347 347 346 343 339 334 331 332 332 331 332 334 336 339 341 342 343 343 343 342 342 341 340 338 339 340 340 339 340 341 342 342 342 343 344 342 341 343 343 342 342 341 341 340 340 341 340 341 341 342 343 343 342 342 342 343 342 343 342 341 340 340 340 340 341 342 341 337 332 334 337 337 337 338 337 336 335 335 337 338 338 339 339
346 345 346 345 343 338 335 335 336 335 332 333 337 340 342 343 343 343 343 343 343 342 341 340 340 339 339 340 339 338 340 341 341 341 340 342 344 343 342 342 342 342 342 341 341 341 340 340 340 340 341 342 343 343 342 342 342 342 342 342 341 339 339 339 339 341 342 341 338 335 336 340 340 338 337 336 335 335 336 336 337 337 337 337 338
345 343 343 342 340 339 339 341 339 333 332 337 342 343 344 344 343 343 343 343 343 343 342 342 341 339 339 339 339 338 339 340 340 340 339 341 344 343 342 342 342 342 340 338 339 341 340 340 340 340 340 341 342 343 342 341 341 340 341 340 338 338 338 338 339 341 342 340 334 334 339 340 338 336 334 335 335 336 336 336 336 336 336 336 337
342 342 342 342 342 343 343 343 338 332 335 341 344 344 344 343 343 343 343 343 344 344 344 343 342 340 340 339 339 339 339 340 340 340 340 341 343 342 342 342 343 342 339 336 337 339 340 340 341 340 340 340 341 342 341 340 339 339 339 339 337 338 338 339 341 342 342 336 329 333 338 337 335 335 336 338 337 336 335 335 335 334 334 334 334
340 343 343 345 345 345 345 345 336 332 339 343 345 345 343 342 343 343 342 343 344 345 344 343 343 341 340 340 340 340 340 340 340 340 340 341 342 343 342 342 342 343 341 338 338 338 339 340 341 340 339 340 340 340 340 340 338 338 339 338 338 338 339 341 342 342 338 331 329 335 337 335 335 338 340 340 339 339 338 336 334 333 333 334 333
343 345 345 346 347 346 347 344 335 335 343 344 345 344 341 341 343 343 342 343 344 344 343 343 343 342 341 340 340 341 340 339 339 339 340 340 342 342 341 341 342 344 343 341 340 338 338 340 340 340 340 340 340 339 339 339 338 338 339 338 338 339 340 341 340 336 330 328 334 338 335 335 337 340 341 341 341 341 340 339 337 334 334 334 335
345 346 346 346 346 347 346 341 336 340 345 345 345 343 341 342 343 342 343 344 344 343 343 343 343 343 342 341 340 340 340 339 338 339 340 340 341 341 340 340 342 344 344 342 342 340 338 338 339 340 340 340 340 339 339 338 338 338 339 339 339 339 339 339 336 331 326 328 337 337 336 337 339 341 342 342 342 341 341 340 339 338 336 334 334
345 346 347 346 346 346 341 337 340 345 345 345 345 344 342 342 341 342 343 343 343 342 342 343 343 343 343 341 340 340 340 340 340 340 340 340 340 340 339 340 342 342 343 343 343 342 340 337 338 339 340 341 340 340 339 339 339 340 339 338 338 338 339 339 335 330 327 329 335 336 337 339 341 342 342 342 341 341 341 340 340 340 339 337 334
345 346 346 346 347 343 336 337 343 346 345 345 345 345 343 341 340 341 343 342 342 342 341 343 344 344 343 342 340 339 340 340 341 340 340 340 340 340 340 340 341 340 341 342 342 343 343 340 339 339 339 341 341 341 340 340 340 340 339 338 338 339 339 340 338 333 330 331 334 335 337 340 341 342 342 342 341 340 340 341 341 340 340 339 337
345 346 345 346 344 336 336 342 345 345 345 345 344 345 343 341 341 342 343 341 341 342 342 343 344 344 343 342 342 341 340 340 340 340 341 342 341 340 341 341 339 339 340 341 342 342 343 342 341 340 339 341 341 341 341 341 340 339 338 337 338 339 340 341 340 337 335 335 334 335 336 339 341 341 341 341 341 341 340 340 340 340 340 340 339
346 345 345 346 340 335 341 346 345 345 345 344 344 345 343 341 342 344 344 342 341 341 342 343 343 343 342 342 343 342 340 340 340 339 340 341 341 341 341 340 338 338 340 341 341 342 343 343 343 342 341 341 341 341 341 340 340 337 336 336 338 339 339 340 339 338 339 338 337 336 337 339 341 341 341 341 341 340 340 339 340 340 340 340 340
346 346 346 343 337 338 344 346 345 345 344 344 344 345 343 342 343 344 344 344 343 342 342 343 343 342 343 342 342 342 341 342 341 340 340 339 341 341 341 340 337 336 339 340 340 341 342 342 341 340 339 339 340 340 340 340 339 338 337 338 338 338 338 339 339 339 340 340 340 339 340 341 342 342 342 341 341 340 340 340 340 340 340 340 340
347 347 343 337 337 342 346 346 345 344 345 344 343 345 343 341 344 344 344 344 342 342 342 343 342 342 342 342 342 342 343 343 342 342 342 341 342 342 342 341 337 335 337 338 338 339 341 341 341 339 337 335 334 334 336 337 338 337 338 338 338 339 339 340 340 340 340 340 340 341 341 342 342 342 341 341 341 340 340 340 340 340 340 339 340
348 346 337 333 340 344 346 346 345 345 345 343 343 344 341 342 344 344 344 343 342 343 344 343 341 340 341 342 342 342 343 342 342 343 342 342 342 342 342 341 339 337 339 340 339 340 341 341 341 340 339 337 334 332 331 332 333 333 333 334 336 336 337 338 338 338 339 339 339 340 341 341 342 342 341 341 341 339 339 340 341 340 340 339 339
345 341 334 336 343 345 346 347 345 345 344 342 343 343 341 343 345 344 345 343 343 344 343 342 340 340 341 342 342 342 342 342 343 343 342 341 341 341 341 340 338 338 339 341 341 342 342 342 341 342 341 340 339 336 333 331 330 331 331 330 331 331 332 333 334 334 335 337 336 336 339 340 340 341 341 340 340 338 339 340 340 341 340 340 339
339 334 334 340 345 346 346 345 344 344 343 342 344 342 340 343 345 344 345 344 343 342 342 341 339 339 340 341 342 341 341 341 341 341 340 339 339 338 338 337 336 336 338 339 341 342 342 342 342 343 343 342 341 340 339 336 334 333 333 332 332 331 332 332 332 331 332 334 333 331 334 338 339 339 339 339 338 338 340 340 340 340 340 339 338
332 331 336 341 345 346 346 345 344 344 342 343 344 342 340 343 345 344 345 343 342 341 340 339 337 338 340 341 341 341 339 338 339 339 337 336 335 335 335 335 336 337 339 340 341 342 342 342 343 343 343 343 342 342 341 340 338 335 335 335 335 334 333 333 332 331 330 333 333 329 329 332 334 335 337 338 338 337 338 339 339 339 338 338 337
329 332 338 342 344 345 344 343 343 343 342 343 344 342 339 343 345 344 344 342 341 341 340 339 340 340 340 340 340 340 338 337 337 337 337 337 336 336 337 338 339 340 341 342 343 343 343 343 343 343 343 343 343 342 341 341 340 338 336 336 336 336 335 334 333 332 332 333 334 331 328 328 328 329 332 334 335 335 336 337 338 338 337 337 336
327 333 339 342 344 342 341 340 340 341 340 342 344 341 338 343 345 344 343 341 341 341 340 341 342 342 341 340 340 339 338 337 337 337 338 338 338 339 340 341 342 342 342 343 344 343 343 343 343 343 343 343 343 342 342 341 341 340 339 338 337 337 336 336 335 335 334 335 336 335 333 332 330 329 329 330 330 331 333 335 337 336 335 335 334
327 332 338 341 341 339 339 338 338 339 339 341 343 340 338 342 344 343 343 341 341 340 340 341 342 343 343 341 340 340 339 338 338 338 339 339 339 340 341 341 342 342 342 343 344 344 344 344 343 343 343 343 342 342 342 342 342 341 341 339 339 338 336 336 336 336 336 336 337 337 337 336 334 333 332 332 331 331 331 332 333 333 332 332 332
327 330 334 337 338 338 338 338 338 338 338 339 342 340 338 341 343 342 342 341 340 341 341 341 342 343 343 343 342 341 340 340 341 341 341 341 341 341 342 341 341 342 342 343 344 344 344 343 343 344 344 343 343 342 343 343 343 342 341 341 340 339 338 337 337 337 337 337 337 337 337 337 336 335 335 335 335 334 333 332 332 332 332 332 333
328 329 332 335 337 337 338 337 338 338 338 339 340 339 338 340 341 341 341 340 340 340 341 341 342 342 343 344 343 342 342 343 344 343 343 343 343 343 343 342 341 343 343 343 343 343 344 343 343 344 344 343 344 344 344 344 344 343 343 343 342 341 340 339 338 337 336 336 336 336 336 336 337 336 336 336 336 336 335 334 334 334 334 334 334
328 330 331 334 336 337 337 337 337 337 338 339 339 339 339 339 339 340 340 339 339 340 341 342 341 341 342 344 344 344 344 345 345 345 344 344 344 344 344 343 342 343 343 343 344 343 343 344 343 343 343 343 344 344 345 345 344 345 345 344 343 342 342 342 341 339 338 337 337 337 337 336 336 336 336 336 336 336 335 335 335 335 335 334 334
329 330 331 334 336 336 337 337 336 336 337 338 339 338 338 338 339 339 339 338 339 340 343 343 342 341 342 344 345 346 346 345 346 345 344 344 345 344 344 343 343 343 343 344 344 344 344 344 343 343 343 343 344 344 344 345 345 345 345 344 343 343 343 343 343 342 341 340 340 340 339 339 338 337 337 337 336 336 335 336 336 336 335 334 334
329 330 330 333 336 336 336 336 334 335 336 337 338 337 337 337 338 339 339 339 339 341 344 345 345 344 344 345 345 346 346 346 345 345 345 345 346 345 344 343 342 343 343 343 344 344 344 344 344 343 343 343 343 344 344 344 345 345 345 344 344 345 345 344 343 343 343 342 341 340 341 341 342 341 340 339 339 338 338 338 338 338 337 336 336
329 330 330 331 334 336 336 336 333 334 335 336 338 337 335 337 339 339 339 340 341 343 344 345 346 346 346 346 346 347 346 346 345 345 345 346 346 345 345 344 342 342 343 343 343 344 344 345 345 344 343 343 343 345 343 343 344 345 345 345 345 345 345 344 344 343 342 341 341 340 341 341 341 342 342 342 341 340 339 339 339 337 336 336 336
330 330 330 330 333 336 336 336 333 333 335 336 337 336 334 336 339 339 339 341 342 344 344 344 345 345 345 345 346 347 347 346 345 345 345 345 344 345 345 345 343 342 342 343 342 343 344 345 345 344 343 342 343 344 343 343 343 343 345 345 344 343 344 344 343 342 341 341 341 341 342 342 341 341 340 341 341 341 340 337 335 333 333 334 334
331 331 331 330 332 335 337 337 334 333 334 336 337 336 335 336 339 340 340 341 342 343 344 343 343 343 344 344 345 346 346 346 345 344 344 344 344 345 345 345 344 343 343 343 343 342 344 345 345 344 343 342 342 342 342 343 342 342 343 344 344 343 343 343 342 341 341 341 342 342 342 342 341 340 338 338 337 337 336 332 330 330 331 331 331
331 331 331 331 332 335 337 338 336 334 333 335 338 337 336 336 339 340 340 340 342 342 343 342 342 343 345 345 344 345 345 344 344 344 344 344 345 345 345 344 343 342 342 343 343 342 344 345 344 344 343 342 341 342 342 342 342 342 341 341 343 343 342 342 341 340 340 340 341 341 341 341 341 340 338 337 334 332 330 328 327 327 328 328 328
333 331 332 332 332 334 336 338 337 335 333 334 336 337 336 335 337 340 340 340 341 343 343 342 342 344 345 346 346 345 344 343 344 344 345 345 345 345 344 344 344 343 342 343 343 342 343 345 345 344 343 342 341 342 342 342 342 343 341 340 341 342 341 341 340 339 339 340 340 340 340 340 339 339 338 336 332 330 329 327 327 327 327 327 327
339 334 332 332 332 333 335 337 338 337 335 333 335 337 336 335 336 338 339 340 341 342 342 342 343 344 344 345 346 345 343 343 343 344 345 345 345 345 344 344 344 344 344 343 342 341 341 343 344 344 343 343 342 341 342 342 343 343 341 340 340 340 340 340 340 340 340 340 340 339 339 339 338 338 339 337 334 331 330 329 328 328 328 328 327
344 340 335 333 331 332 333 336 338 338 337 335 334 337 338 335 336 338 339 340 341 342 343 342 343 344 344 343 343 343 342 342 343 344 346 346 346 345 344 345 344 344 344 343 342 342 341 342 343 344 344 343 343 342 342 342 343 342 340 340 341 341 341 340 340 340 340 340 339 338 338 338 339 339 339 339 337 335 333 333 333 332 332 330 328
346 344 341 337 333 332 332 334 337 338 339 337 335 336 338 338 336 337 339 340 340 342 343 342 343 344 342 341 341 342 342 342 342 344 346 346 347 346 344 344 343 343 344 344 343 342 342 342 342 344 344 344 344 343 343 342 342 342 341 341 340 341 343 341 340 339 339 339 339 338 339 338 339 339 339 340 339 339 338 338 339 338 336 333 330
346 346 345 342 337 335 334 334 335 337 339 339 337 335 338 340 339 339 339 339 340 342 343 342 343 342 341 340 341 342 342 342 342 343 344 346 347 346 344 343 343 344 343 344 343 342 343 343 342 343 345 345 344 343 343 342 341 341 341 342 342 344 344 342 341 340 338 339 339 338 338 338 338 338 338 339 339 340 340 340 340 340 339 336 334
347 346 345 344 342 339 338 336 335 335 337 339 339 337 337 339 340 340 339 338 338 340 341 341 342 341 340 343 343 343 343 342 343 343 343 345 346 345 343 343 344 344 343 343 343 342 343 343 343 344 345 345 344 343 343 342 341 341 340 341 342 343 344 343 343 342 338 338 338 339 339 338 338 338 338 338 339 339 339 339 339 339 339 338 337
347 346 345 345 344 343 341 339 336 335 336 338 339 338 338 339 339 339 338 338 337 338 339 340 341 342 343 345 346 345 344 343 343 343 343 344 345 345 344 343 344 345 343 343 342 342 343 344 344 344 346 346 344 343 344 342 341 341 340 341 341 342 343 343 343 343 340 338 337 339 340 338 338 338 338 338 338 338 338 339 339 339 339 338 337
347 346 345 345 345 345 344 342 339 336 335 337 339 339 339 339 338 339 338 337 337 338 338 339 340 342 344 346 347 347 345 344 343 342 343 344 344 345 345 344 344 344 344 343 342 341 342 343 344 344 345 346 345 343 344 343 343 342 340 341 341 342 342 341 341 340 341 342 340 340 340 338 337 338 339 338 337 338 338 338 339 339 339 338 338
347 346 345 345 345 345 345 344 342 339 336 336 338 339 339 339 339 339 339 338 337 339 339 338 340 342 344 346 347 347 345 344 343 343 343 343 343 344 344 343 343 345 345 344 343 342 341 342 343 344 345 346 346 345 344 344 344 342 341 342 342 342 342 340 339 339 340 342 343 342 341 338 339 339 339 339 339 339 339 339 340 340 340 340 340
347 346 346 345 345 345 345 345 344 342 339 337 338 339 339 339 340 339 339 339 339 339 339 338 339 342 344 346 346 346 345 344 343 342 342 343 343 344 343 343 344 345 345 344 344 343 342 342 342 343 344 345 346 345 345 345 344 341 341 342 342 342 341 340 340 341 341 342 342 343 342 340 341 340 339 340 340 339 339 339 339 340 340 340 341
346 346 346 346 346 345 345 345 345 344 341 338 337 338 339 338 339 339 338 338 339 338 337 336 337 340 344 345 345 345 345 345 344 343 342 342 343 344 344 343 344 344 344 343 343 344 344 344 344 343 343 343 344 344 344 344 342 341 342 342 341 342 341 340 340 341 342 343 343 344 343 340 341 340 339 340 341 340 339 339 339 340 340 341 341
Wind_Speed
24 23 23 23 22 21 21 20 20 20 20 20 19 18 17 16 14 13 12 10 9 8 7 7 7 8 10 10 10 10 10 10 10 9 8 7 7 7 6 7 6 7 7 7 7 8 9 10 10 10 9 10 10 11 12 12 12 13 13 13 13 13 13 14 14 14 14 14 14 13 14 14 14 15 15 16 16 17 17 18 20 20 21 23 22
26 24 22 22 21 20 20 19 19 20 20 19 19 17 16 15 14 12 11 10 9 8 7 7 8 9 9 9 9 9 9 9 8 8 8 7 7 6 6 7 7 7 7 7 8 8 9 10 10 9 9 9 10 10 11 11 12 12 13 13 13 13 13 13 13 13 13 13 14 14 14 14 14 15 15 16 16 17 18 19 21 20 20 21 21
26 25 24 23 21 20 20 19 19 19 19 18 18 16 15 14 13 12 11 10 8 7 7 8 9 9 8 8 8 8 8 8 8 7 7 7 6 6 6 7 7 7 7 8 8 9 10 10 10 10 10 10 10 10 10 11 12 12 12 12 12 12 12 12 12 13 13 13 13 14 14 13 14 15 16 16 16 17 18 19 21 19 18 19 19
26 26 24 23 21 21 19 18 18 18 18 18 17 16 15 14 13 12 10 9 7 7 8 8 9 8 7 7 7 7 7 7 7 7 7 6 6 7 7 7 7 7 8 9 9 9 10 10 10 11 11 11 10 10 10 10 11 11 11 12 12 12 12 12 12 13 13 13 13 14 14 14 14 15 16 16 16 17 18 18 19 18 17 18 17
26 25 23 22 21 20 19 18 18 18 18 17 16 16 15 14 12 11 9 8 7 8 8 8 8 8 7 6 6 6 6 6 6 6 6 5 6 6 6 7 7 7 8 9 9 9 10 9 10 11 11 11 10 10 9 10 10 10 11 12 12 11 12 12 13 13 13 13 14 15 15 14 15 15 15 16 16 17 17 17 18 18 17 17 16
24 24 22 21 20 19 18 17 17 17 16 16 15 15 14 13 11 9 9 8 7 7 8 8 8 7 6 5 6 5 5 5 6 6 6 6 6 6 6 7 7 7 7 9 11 9 9 9 10 10 10 10 10 10 9 9 10 10 11 11 11 11 12 13 13 13 13 14 15 16 16 15 15 16 16 16 16 16 16 16 16 17 16 15 15
23 23 21 20 19 18 18 17 16 15 15 15 14 14 12 11 9 9 9 8 7 8 8 8 7 6 5 6 6 5 5 5 6 6 7 6 6 6 7 8 7 7 8 10 12 10 9 9 8 9 9 9 10 10 9 9 9 9 10 11 11 12 13 13 13 14 14 15 16 16 16 16 16 16 15 15 15 14 14 15 16 15 14 14 14
23 22 20 19 18 18 18 16 15 14 14 14 13 12 11 10 9 9 9 8 8 8 8 7 6 5 5 6 5 5 5 5 6 7 7 7 7 8 8 8 7 8 10 11 12 10 8 8 8 8 9 9 9 10 9 10 10 10 11 11 12 13 14 14 14 14 15 15 15 16 16 15 15 14 13 13 13 13 13 14 14 14 14 14 13
22 21 20 19 19 18 17 16 15 14 14 13 12 11 10 9 9 9 9 9 8 8 7 6 4 4 5 6 5 5 5 6 7 8 9 8 8 9 9 9 8 9 11 12 12 9 9 9 8 9 10 9 9 10 10 10 10 12 13 13 13 14 15 14 14 14 14 14 14 15 15 14 14 13 12 12 12 13 13 13 13 14 13 13 13
23 21 20 19 19 18 17 16 15 14 13 12 11 10 10 10 10 9 9 9 9 8 7 5 3 3 5 6 6 6 7 7 7 9 10 9 9 9 10 11 10 10 11 12 12 10 9 10 9 9 10 10 10 10 11 11 12 13 14 14 14 14 15 14 14 13 13 13 13 14 14 13 13 12 11 12 12 13 13 12 13 14 13 12 12
23 22 19 18 19 17 17 16 15 14 13 12 11 11 11 10 10 10 9 9 9 8 7 5 3 3 5 6 6 7 8 8 8 9 10 10 10 10 11 12 11 11 11 13 13 11 10 10 10 10 10 10 11 11 12 12 12 14 14 15 15 15 15 14 13 13 12 13 13 13 13 14 14 13 12 13 13 13 12 13 14 14 12 12 12
22 21 19 18 17 17 17 16 15 14 13 12 12 11 11 11 10 10 9 9 8 8 7 6 4 3 6 7 7 8 9 9 9 9 10 10 11 10 11 12 13 13 12 13 13 12 12 11 11 11 10 11 11 11 12 13 13 14 15 16 16 16 15 13 12 13 13 13 13 13 14 15 15 15 15 14 14 13 13 14 14 13 12 12 12
21 21 20 18 17 16 16 15 14 13 12 12 11 11 11 10 10 9 9 8 8 8 8 8 6 5 6 7 8 10 10 10 10 9 10 10 10 10 11 13 14 14 13 14 13 13 13 12 12 11 11 12 12 12 12 13 14 15 15 16 16 15 14 13 12 13 13 13 13 13 15 15 15 15 15 15 14 14 14 13 13 12 12 12 12
21 20 20 18 16 15 14 13 13 12 11 11 11 11 10 10 9 9 8 8 8 9 10 10 8 7 6 7 9 11 11 10 10 10 10 10 10 10 12 13 14 14 14 14 15 14 15 13 12 12 12 13 13 14 14 14 15 15 16 16 15 14 13 12 12 13 13 12 12 14 15 15 15 15 16 16 16 15 14 13 13 12 12 11 11
21 19 19 18 16 14 12 12 11 11 11 11 11 10 10 9 8 8 8 8 8 9 10 11 11 8 6 7 10 11 11 11 11 11 11 10 10 11 12 13 15 15 15 15 15 15 15 15 14 14 14 15 15 15 15 15 16 16 16 14 13 13 13 13 13 13 12 11 13 14 15 14 15 16 16 17 16 16 15 15 14 13 12 12 11
21 19 19 17 15 14 13 11 10 10 11 11 10 10 9 8 8 7 8 8 8 10 11 12 12 9 7 7 9 11 11 11 12 12 12 11 11 11 11 13 15 16 18 16 15 15 15 15 15 16 16 16 16 16 16 16 16 16 15 14 13 13 13 13 13 11 11 12 14 14 14 15 16 16 16 16 15 15 15 16 15 14 13 12 12
19 18 18 17 16 14 12 10 9 10 10 10 10 9 8 8 8 7 8 8 9 11 11 12 12 10 8 8 9 10 11 11 12 11 12 11 11 11 11 13 14 16 18 18 17 15 14 15 16 17 17 16 16 17 17 17 16 16 14 13 14 14 14 13 12 11 11 12 14 14 14 15 15 15 14 14 14 13 14 14 14 14 13 12 11
18 17 16 16 15 13 12 10 9 10 10 10 9 8 8 8 7 7 8 9 10 11 11 12 13 10 10 9 9 10 11 11 11 11 11 10 11 11 11 13 13 14 17 18 19 17 15 15 16 18 18 17 17 17 17 17 16 15 14 14 14 14 14 13 13 12 12 13 14 14 14 14 15 14 13 13 13 12 12 13 13 13 13 12 11
17 16 15 15 14 13 11 10 10 11 10 10 10 8 8 8 7 8 9 9 10 11 11 11 13 12 11 10 9 10 11 12 11 11 11 11 11 11 12 13 12 14 15 17 19 19 18 16 16 17 18 18 17 16 16 16 16 15 14 14 14 14 14 13 13 14 13 13 13 13 14 15 14 13 12 12 12 11 11 12 12 12 12 11 12
16 15 15 14 13 12 11 11 12 11 11 10 10 9 8 8 8 9 9 10 10 10 10 10 12 12 12 11 9 10 10 11 12 12 12 12 12 12 12 12 12 14 15 15 18 19 19 17 16 15 17 18 16 16 16 16 15 14 14 14 14 13 12 12 13 13 13 13 13 13 14 14 12 12 11 11 11 10 11 11 11 10 10 10 11
16 16 15 14 13 12 12 12 12 11 11 10 10 9 9 8 9 10 10 10 10 10 10 10 11 11 12 12 11 10 9 11 12 13 13 13 12 12 12 12 13 14 14 15 16 18 19 18 17 16 16 16 15 15 16 16 15 14 13 13 13 12 12 12 12 12 13 13 12 12 13 12 11 10 10 10 10 10 10 10 10 9 9 10 10
17 16 16 14 13 12 13 12 11 11 11 10 10 10 9 9 10 11 10 10 10 10 9 10 11 11 12 13 12 11 10 11 11 12 13 13 13 13 13 12 13 13 13 15 16 17 18 18 18 18 16 15 15 16 15 15 14 13 13 13 13 12 12 11 11 11 11 11 11 11 12 10 9 9 9 10 10 9 9 9 9 9 9 9 9
18 17 16 14 13 13 13 12 11 11 11 10 10 9 10 10 10 11 10 10 10 10 9 9 10 11 11 12 12 12 12 12 11 11 12 13 13 13 13 12 11 12 13 15 16 17 18 17 17 18 17 16 15 15 14 13 12 12 12 12 12 12 12 11 11 11 10 10 10 10 10 9 8 8 9 9 8 7 8 8 8 8 8 8 8
17 16 16 15 14 14 13 12 11 11 10 9 9 9 10 11 11 11 10 10 10 10 9 9 10 10 11 12 12 12 12 12 11 12 12 12 12 13 14 12 10 12 13 14 15 16 17 17 17 17 16 15 15 14 13 12 12 11 12 12 12 12 11 11 10 10 9 9 8 8 7 8 8 8 8 8 7 7 8 7 7 7 7 8 8
16 16 17 17 15 15 13 12 12 11 10 9 9 9 11 11 11 10 10 9 9 9 9 9 9 10 11 11 11 11 11 11 11 11 12 12 12 12 13 12 11 11 11 13 15 15 15 16 16 15 15 15 14 14 13 13 13 12 12 12 11 11 11 10 9 9 9 8 7 6 6 7 7 7 7 7 7 7 7 6 6 6 7 7 8
16 18 18 17 16 15 14 13 12 12 10 10 9 9 11 11 10 10 9 9 9 8 8 8 8 9 10 11 11 10 10 11 10 10 11 11 11 11 12 12 12 12 12 13 14 14 13 14 14 14 14 14 13 13 13 13 13 12 12 12 12 11 10 10 9 9 8 7 5 5 6 5 6 6 6 6 6 6 6 5 5 6 7 7 7
18 19 19 18 16 15 14 14 13 12 11 10 10 9 11 11 10 9 8 8 8 8 8 8 9 10 11 11 10 10 9 10 10 10 11 11 11 11 12 12 13 13 13 13 14 13 13 13 13 13 14 13 13 13 13 12 12 12 11 11 11 11 11 10 9 9 9 7 6 6 6 5 5 5 5 5 5 5 5 5 5 6 7 7 6
20 20 20 18 16 16 15 14 13 12 10 11 10 10 11 11 10 9 8 8 8 8 8 8 9 10 11 11 10 9 10 10 10 10 11 12 12 13 13 13 12 12 13 13 13 13 13 13 12 12 13 13 13 12 12 12 11 11 11 10 10 11 11 11 10 10 10 9 8 8 7 6 5 4 4 5 4 4 4 5 5 6 6 5 6
21 21 20 17 16 16 16 15 14 12 11 11 10 10 12 11 10 9 8 9 9 8 8 8 9 10 10 10 10 10 10 10 10 10 11 11 12 12 12 12 11 11 12 12 12 12 12 12 12 11 12 13 13 12 12 11 11 11 11 10 10 10 10 11 11 11 10 10 9 9 9 9 8 7 6 5 4 4 4 4 5 5 5 5 5
22 21 20 18 17 17 17 16 14 13 12 11 11 11 12 11 10 9 9 9 9 8 9 8 8 9 9 9 10 10 10 10 10 10 10 10 10 10 10 9 9 10 11 11 11 11 12 11 11 10 11 11 11 11 11 11 11 11 11 11 10 10 10 10 11 11 10 10 9 9 9 10 10 9 8 7 6 5 5 4 4 5 5 5 5
22 22 20 19 18 17 17 17 15 14 13 12 11 12 13 11 10 10 9 9 9 9 9 9 9 8 8 9 9 9 10 10 9 9 9 9 8 8 7 7 7 8 9 9 10 10 11 11 11 10 10 10 11 11 11 11 11 11 11 10 10 10 9 10 10 10 10 9 9 8 8 9 9 9 9 8 8 7 6 6 6 6 5 5 5
22 22 20 19 19 18 17 16 15 14 14 13 12 13 13 12 11 10 9 9 9 9 9 9 9 8 8 8 9 9 9 9 8 7 7 7 7 6 6 6 6 7 8 8 8 9 10 11 12 11 11 11 11 11 11 11 11 10 10 10 10 10 9 9 10 9 9 9 8 8 8 8 8 8 8 8 8 7 7 7 6 6 6 6 6
22 21 20 19 19 18 17 16 16 15 14 14 13 14 14 12 12 11 10 10 9 9 8 8 8 8 8 7 8 8 8 8 7 6 6 5 5 5 5 5 5 6 6 6 6 6 8 10 11 11 11 11 11 10 10 9 9 9 9 9 10 9 9 9 9 9 9 8 8 8 7 7 7 7 7 7 6 6 6 6 6 6 6 6 6
22 21 20 19 19 18 17 16 16 16 15 14 14 14 14 13 13 12 11 11 10 9 8 8 8 8 8 7 7 7 6 6 6 5 5 5 5 5 4 4 4 5 5 5 5 4 6 8 8 9 11 11 11 10 9 9 8 8 8 8 8 9 9 9 9 9 9 8 8 8 8 7 7 6 6 6 6 6 6 6 6 6 6 7 7
22 21 20 20 19 19 17 16 16 16 16 15 15 15 14 14 13 12 12 11 10 9 8 7 8 8 7 7 6 5 5 4 4 5 5 5 5 4 3 3 3 4 4 3 3 3 4 6 7 7 9 10 10 10 10 9 8 7 7 7 8 8 9 9 9 9 9 8 8 8 8 7 7 6 6 6 6 7 7 6 6 7 7 8 8
22 21 20 20 20 19 18 16 16 16 16 16 16 16 15 15 14 13 12 11 10 9 8 7 7 7 7 6 6 5 4 3 3 4 5 5 4 3 3 3 3 3 3 3 3 3 3 4 6 6 7 8 8 8 8 9 8 7 7 7 8 8 8 8 8 9 9 9 8 8 8 7 7 6 6 7 7 7 7 7 7 7 7 8 8
21 21 20 20 20 19 18 16 16 16 16 16 16 16 16 16 14 13 13 11 10 9 8 7 7 7 7 6 5 4 4 4 4 4 5 4 4 3 2 2 3 3 3 4 4 4 3 4 5 5 6 7 6 5 6 7 8 7 7 6 6 6 7 7 8 9 10 10 9 9 8 8 8 7 7 7 7 7 7 7 7 7 7 7 8
22 21 21 20 20 19 18 17 16 16 16 16 17 17 17 17 15 14 13 12 11 10 9 7 7 7 7 6 5 4 3 3 3 4 4 4 4 4 3 3 3 3 3 4 4 5 5 5 5 5 6 6 5 5 5 6 7 7 6 5 5 6 6 7 7 8 8 9 9 9 9 9 9 9 8 7 7 7 7 7 7 7 7 7 7
22 21 21 20 20 19 19 18 17 16 16 17 17 18 18 18 16 15 14 13 12 10 9 8 7 8 7 7 5 4 3 3 3 4 4 4 4 3 3 3 3 2 3 3 4 5 6 6 5 6 6 6 6 6 5 6 6 7 6 5 5 6 6 6 6 7 7 7 7 7 8 9 9 9 9 8 7 7 7 7 7 7 6 7 7
23 22 22 21 21 20 20 19 18 17 17 18 18 19 19 19 18 17 16 14 13 11 9 8 8 8 7 6 5 4 4 3 3 4 4 4 4 3 3 3 2 2 3 3 4 5 7 7 6 6 5 5 6 6 5 4 6 7 7 6 5 5 6 6 6 6 6 6 6 7 8 9 9 10 10 9 8 8 7 7 7 7 6 7 7
23 23 23 23 22 21 21 20 19 18 18 19 20 20 21 21 20 18 17 15 13 11 10 9 8 8 7 6 5 4 3 3 3 4 4 3 3 3 3 3 2 2 3 4 5 6 7 7 6 6 5 5 5 4 3 4 5 6 7 7 6 6 6 6 6 7 7 7 8 9 9 9 10 10 10 9 8 7 7 7 7 6 6 6 7
23 24 25 24 23 22 22 21 20 20 19 19 20 20 20 21 20 19 17 16 14 11 9 9 9 8 7 6 5 4 4 4 4 4 4 3 2 2 2 2 2 3 3 4 5 6 7 7 7 7 5 4 3 3 2 3 4 5 6 7 6 6 7 7 6 7 9 9 10 10 10 10 10 10 10 9 8 7 7 7 6 6 6 6 7
21 22 24 25 24 23 23 23 22 21 20 19 20 20 20 20 19 17 16 15 14 11 10 9 9 9 8 8 7 6 6 5 4 4 4 3 3 2 2 2 2 3 3 4 5 5 6 7 8 7 6 4 3 2 1 3 3 6 7 7 6 6 7 7 7 7 9 10 10 10 9 9 9 8 9 9 8 8 7 7 7 7 7 7 7
23 22 23 25 25 25 24 24 23 22 21 20 20 20 19 19 19 17 16 16 14 12 11 11 11 10 9 9 8 7 7 6 6 6 5 4 3 3 3 3 3 3 3 3 3 4 4 6 8 8 7 5 3 1 1 2 3 6 7 7 7 7 6 7 7 8 9 9 9 9 7 7 7 7 7 8 7 7 7 7 8 8 8 8 7
26 24 23 24 24 24 24 24 23 23 22 20 20 20 20 20 20 19 18 18 16 15 13 13 12 11 10 9 8 8 7 7 7 7 5 4 3 3 3 3 3 3 3 3 3 3 4 6 8 8 7 5 4 2 0 1 3 6 8 7 7 6 6 8 7 7 8 8 8 9 8 7 7 6 6 6 6 6 6 6 6 7 7 7 7
27 25 23 22 22 22 23 23 23 23 22 21 20 20 21 22 22 21 21 20 19 17 15 14 13 11 10 9 8 8 7 7 7 7 6 4 3 3 3 3 3 3 3 3 3 4 5 6 8 7 7 6 5 3 1 1 2 5 6 6 6 6 7 8 7 7 7 7 8 10 11 9 7 6 5 5 5 5 5 5 5 5 6 6 6
28 26 24 23 22 21 22 23 23 23 23 23 22 21 22 23 23 22 21 21 19 17 14 14 13 12 11 10 9 7 7 7 7 7 6 5 4 4 3 3 3 4 4 4 4 5 6 7 8 8 7 6 6 5 3 1 1 3 4 4 5 6 7 8 8 7 6 6 8 10 12 10 8 8 7 5 5 4 4 4 5 5 5 5 6
29 27 26 25 23 21 21 22 22 23 23 23 23 22 23 23 23 23 22 21 19 16 14 14 13 13 12 11 9 8 7 7 7 7 6 5 4 4 4 4 4 4 3 3 4 4 5 7 8 8 7 6 6 6 5 3 1 1 2 3 4 4 5 6 6 6 6 6 7 10 12 10 10 10 8 6 5 5 5 5 5 5 5 5 5
31 29 27 25 24 22 22 22 22 23 23 24 24 23 22 23 23 23 22 21 19 17 15 15 15 14 13 12 10 9 8 8 8 8 7 6 5 5 4 4 4 3 3 3 4 4 5 6 7 7 7 6 7 7 6 6 3 1 1 2 2 3 5 5 5 6 6 6 7 9 11 11 10 10 9 7 6 6 6 5 5 5 5 5 5
32 30 28 27 25 24 23 23 22 22 23 24 25 24 23 23 23 23 22 21 20 18 17 17 17 16 15 13 12 11 10 9 9 9 9 7 6 5 5 4 4 3 3 3 4 4 4 5 6 7 7 7 7 7 7 7 5 3 2 1 1 2 3 3 4 5 6 7 7 8 9 10 9 9 8 8 7 7 6 5 5 5 5 5 4
34 31 29 28 27 26 25 24 23 22 22 24 26 26 24 24 24 23 22 21 20 19 18 18 18 18 17 15 13 12 11 10 10 10 10 9 8 7 6 5 5 4 3 4 4 4 4 4 5 6 7 7 7 6 6 6 5 4 3 3 1 1 2 2 3 4 4 6 7 7 7 8 9 8 8 7 7 7 6 5 5 5 5 5 5
Wind_Direction
143 140 136 134 133 134 134 136 135 136 139 140 141 138 139 140 138 140 144 144 143 138 134 127 117 109 101 93 88 86 86 90 96 101 104 104 106 111 111 111 110 108 109 105 95 88 89 92 96 100 101 101 101 103 106 109 107 106 106 104 104 104 100 96 94 93 91 91 95 98 98 98 99 98 99 99 97 94 88 79 71 74 86 93 96
144 140 136 136 133 133 133 135 136 138 139 138 140 139 140 139 138 140 144 145 143 138 130 120 108 101 97 91 86 83 81 81 86 93 101 107 111 116 114 111 110 109 111 110 105 98 94 95 99 102 102 105 108 108 110 112 110 107 106 105 104 102 98 95 95 95 94 94 97 98 97 100 101 101 100 99 97 93 85 79 76 83 93 93 93
145 141 138 138 134 133 132 132 132 134 135 137 140 140 139 140 141 142 145 144 140 132 116 107 102 100 97 91 86 81 81 81 83 85 89 97 103 106 108 108 110 113 115 115 112 108 106 107 110 112 113 114 114 112 112 114 113 110 107 108 106 104 101 98 98 97 96 97 100 99 100 101 100 102 102 99 96 92 86 83 80 87 96 94 92
147 142 140 139 136 134 132 131 129 129 134 138 140 139 139 141 142 143 143 137 125 110 98 96 98 100 99 92 87 84 86 89 89 89 86 83 88 93 98 104 109 116 119 119 119 117 116 115 118 122 122 118 116 114 114 113 114 114 111 111 110 108 106 102 100 99 100 102 103 102 101 100 99 99 98 96 94 92 88 84 82 89 97 95 93
147 142 140 141 139 135 132 132 132 133 136 138 140 140 141 142 141 139 131 116 103 94 91 93 98 101 102 97 93 90 91 94 92 90 90 81 81 90 98 104 108 117 121 119 116 110 110 116 122 125 124 119 116 115 115 114 113 113 111 111 110 108 107 104 102 103 104 104 105 104 102 99 97 95 94 94 94 92 87 83 83 89 95 94 93
146 142 140 143 141 138 136 137 138 138 138 138 141 141 140 138 135 127 113 102 94 92 96 101 105 109 109 102 92 85 83 85 88 87 88 83 83 93 101 103 107 118 117 112 110 105 110 119 123 124 123 119 116 114 115 116 115 114 112 111 111 111 108 104 104 105 103 103 105 104 100 96 94 93 93 94 95 92 87 84 81 86 93 94 91
147 142 141 143 143 142 140 141 145 143 141 140 140 139 136 132 128 119 110 103 98 100 105 109 111 114 109 97 90 85 82 78 83 85 86 87 94 99 98 99 102 107 102 101 107 111 116 118 119 121 119 116 115 116 120 119 117 116 114 115 116 115 109 104 102 102 102 104 105 103 99 95 91 91 92 93 92 91 87 83 81 86 94 95 91
148 143 141 143 143 143 141 143 148 150 146 140 138 135 133 130 127 120 114 110 108 109 109 109 111 109 97 90 90 92 89 83 83 83 86 92 97 98 94 92 92 90 90 93 101 109 114 112 113 115 116 116 117 120 121 119 118 116 114 116 116 112 107 103 100 100 104 105 103 102 99 96 93 91 91 91 91 89 86 83 83 88 95 95 90
148 144 143 143 144 143 142 146 152 153 147 139 136 134 134 132 127 121 115 114 112 110 108 105 106 96 90 88 87 84 80 79 79 78 85 93 93 96 96 93 90 86 87 91 97 104 106 105 107 109 112 115 119 120 120 120 120 117 115 116 114 111 107 103 103 105 107 104 101 100 99 97 93 92 93 94 92 89 86 85 86 90 95 93 88
149 147 146 145 145 145 144 151 154 150 142 135 135 134 134 132 126 119 115 117 112 107 102 96 89 85 93 93 85 78 76 77 76 79 85 90 89 90 93 93 93 90 89 92 96 98 99 101 106 108 110 113 116 115 115 117 115 115 116 115 114 111 108 107 108 109 107 103 101 97 96 96 96 99 101 98 92 88 88 89 91 95 96 91 86
150 148 147 147 146 146 147 152 151 143 137 135 135 134 133 130 125 121 120 116 107 102 97 89 76 74 90 92 85 78 77 79 79 83 88 90 90 90 92 94 92 90 90 92 95 95 97 102 102 104 109 111 112 110 110 112 112 115 116 114 114 112 110 111 112 110 106 103 98 94 93 96 100 102 100 94 90 89 91 92 95 98 94 87 80
151 149 148 148 148 149 149 148 143 136 136 136 134 131 127 124 122 122 121 112 104 100 95 90 84 78 87 92 88 82 80 83 84 86 89 91 93 94 94 94 93 92 91 90 92 93 94 95 94 97 104 107 108 109 109 111 114 117 117 115 114 114 114 113 112 110 106 101 95 95 98 98 100 99 96 93 91 92 93 94 95 94 90 83 77
150 151 149 147 149 150 146 142 138 135 136 134 130 128 124 121 119 119 116 110 105 100 96 95 96 87 84 88 85 83 84 87 87 86 91 95 95 96 95 93 95 95 93 93 91 88 88 89 89 94 102 106 108 109 108 111 114 117 116 115 116 116 116 114 112 110 105 99 95 101 105 103 101 98 96 94 93 92 92 92 91 88 84 81 76
150 149 148 144 145 144 141 139 138 135 133 131 130 126 124 121 118 116 113 111 109 107 106 104 102 92 83 81 80 83 86 89 90 91 96 100 96 93 95 95 96 93 88 89 89 89 91 91 91 94 99 103 106 106 106 110 114 115 114 113 115 116 114 113 111 108 104 99 98 104 106 104 102 99 97 94 91 89 88 86 84 81 78 77 74
148 147 145 141 144 145 142 141 137 134 134 132 130 126 125 122 118 117 113 114 115 112 109 106 101 92 84 77 81 85 87 89 91 96 100 102 100 96 97 99 99 96 90 87 88 92 94 96 97 97 99 102 105 106 106 109 114 115 112 112 112 110 111 111 109 107 103 97 97 101 101 101 102 99 96 93 90 88 85 81 78 77 76 74 73
148 148 148 145 149 150 146 145 141 135 135 132 129 127 124 123 121 119 116 117 117 108 103 102 99 94 86 77 82 87 89 89 89 95 101 101 101 98 98 98 98 97 96 94 92 91 93 95 97 99 100 102 104 106 107 108 112 113 111 110 109 109 111 111 108 103 96 95 99 100 99 101 102 99 95 92 91 88 83 81 78 77 77 78 78
151 151 152 150 152 151 150 151 145 135 134 132 130 128 123 122 121 119 120 118 112 105 101 99 97 94 89 81 81 86 88 88 88 93 98 101 101 100 99 97 95 96 99 99 96 93 94 95 97 100 102 102 101 103 105 107 109 109 108 107 108 109 109 105 98 90 89 98 103 101 102 103 102 98 95 92 89 86 81 80 78 75 75 77 78
155 154 154 153 153 154 156 154 142 138 141 136 130 127 121 120 118 120 120 115 110 103 102 101 100 98 90 84 78 82 87 88 89 91 95 99 99 98 97 95 93 93 95 98 98 98 98 99 100 100 101 101 99 99 103 105 106 104 102 101 103 104 102 94 85 83 90 101 103 104 108 106 102 97 94 91 87 84 81 79 77 74 72 73 75
158 157 157 156 157 159 160 151 144 147 148 140 132 127 122 121 121 122 118 114 111 106 108 109 108 104 94 87 79 81 87 90 93 94 96 99 98 97 98 97 94 91 89 93 99 103 104 104 101 98 100 101 99 101 103 104 104 102 100 98 98 99 96 89 84 86 93 101 103 106 107 103 99 94 89 86 84 82 80 77 74 71 69 68 68
162 164 163 161 163 163 161 152 151 151 147 143 134 130 125 124 128 125 118 115 114 112 115 113 109 106 102 96 87 82 84 90 95 97 100 100 100 100 100 101 97 89 88 92 97 103 107 105 101 96 97 100 101 102 101 101 103 103 102 100 99 99 99 92 86 88 94 98 101 103 102 98 93 89 87 84 82 77 73 73 72 69 67 63 62
168 170 167 167 167 166 162 154 156 154 149 145 137 134 130 129 131 125 117 116 117 118 119 112 106 104 105 104 99 92 86 87 91 97 101 101 101 98 97 98 95 89 90 93 93 97 101 102 101 96 93 95 98 101 100 100 101 102 102 102 102 103 102 94 88 87 91 93 96 100 98 95 91 88 87 81 77 72 69 70 71 69 66 61 58
170 172 172 172 170 169 163 156 159 158 152 147 143 140 135 135 134 127 121 120 120 117 117 111 105 100 102 106 106 103 94 87 86 92 97 99 99 96 91 89 90 91 93 94 95 96 95 98 100 98 96 94 95 97 98 98 97 99 101 102 102 102 100 94 90 88 88 90 94 98 98 99 98 91 85 78 72 70 68 64 64 64 64 61 55
172 173 176 176 173 169 163 159 163 161 155 150 149 144 140 143 138 132 126 124 122 118 116 110 105 103 103 105 106 107 103 96 92 90 91 95 96 93 90 86 87 90 90 89 93 94 92 93 95 96 97 94 93 93 95 97 96 97 98 96 96 96 96 93 91 90 92 97 100 100 101 101 92 82 78 77 73 67 63 59 59 58 60 59 53
173 175 177 177 173 169 165 164 166 163 159 154 152 149 148 147 140 136 130 128 128 121 116 113 110 108 107 106 106 108 106 103 101 100 99 99 99 97 97 97 95 93 89 88 91 89 87 89 90 92 93 93 94 95 96 98 98 96 93 91 92 93 93 92 91 90 92 94 96 97 97 92 83 79 77 76 71 62 57 57 58 55 54 56 53
175 177 177 176 172 169 167 167 169 168 166 159 153 155 154 148 143 139 134 134 131 122 117 116 113 108 106 106 105 105 104 103 102 104 105 105 104 104 105 106 107 106 100 97 95 89 84 86 89 92 93 93 94 95 95 94 95 95 94 94 93 92 91 92 92 90 88 83 84 88 88 86 87 89 81 74 66 59 56 56 58 55 54 53 51
178 179 177 175 172 172 172 170 171 173 171 159 153 160 157 148 146 141 136 137 132 126 122 119 115 110 108 106 104 101 101 102 102 103 104 106 107 109 110 112 114 115 110 103 101 96 90 88 92 94 95 95 94 94 94 93 94 94 93 93 92 92 89 88 87 87 88 86 86 90 92 87 85 85 78 73 64 57 57 58 58 55 51 49 48
179 178 177 176 174 175 177 175 174 176 172 159 155 164 159 149 147 145 140 138 134 130 126 122 117 114 113 110 106 103 102 102 101 101 102 106 108 108 109 111 113 113 109 105 104 101 97 93 91 92 93 95 95 93 92 92 93 92 91 91 90 90 89 88 85 84 84 85 85 88 97 97 89 84 78 72 60 57 62 62 60 56 50 47 48
180 177 178 180 180 179 179 178 175 175 171 161 160 167 161 151 149 148 144 140 135 132 127 122 119 117 115 112 110 108 106 104 102 101 102 104 105 105 105 106 106 105 102 101 100 100 99 96 91 89 91 94 95 94 93 93 93 94 94 93 92 91 91 90 88 85 82 79 77 79 89 95 93 89 82 75 62 57 64 64 62 59 51 48 53
184 181 183 184 184 184 182 180 178 174 171 166 166 170 164 154 151 152 149 142 136 134 130 123 120 118 115 114 113 112 109 107 106 106 104 102 100 101 101 100 100 97 94 93 93 95 97 97 94 92 92 94 97 98 97 97 97 97 97 96 95 93 93 92 89 87 85 82 79 76 79 85 88 89 90 92 81 65 61 59 58 57 52 50 54
188 186 187 186 186 186 184 182 180 175 174 171 170 174 167 157 155 155 151 144 139 138 133 128 123 117 116 117 116 115 113 110 108 108 106 103 101 100 98 93 90 87 85 84 85 89 91 93 94 95 95 96 99 101 101 99 98 98 98 98 97 95 94 94 92 90 88 87 85 80 77 80 83 85 88 89 87 81 72 60 55 55 53 51 50
193 193 191 189 187 185 183 183 182 178 177 175 175 177 169 160 159 157 153 147 142 141 138 134 127 121 120 119 117 116 115 114 112 109 106 104 101 98 94 87 82 80 79 80 81 84 86 86 87 91 94 95 97 101 103 101 99 97 98 98 96 96 95 95 93 91 89 88 88 85 81 80 79 78 79 77 77 76 73 66 62 57 51 49 48
198 198 196 193 188 186 186 185 183 180 180 179 178 179 171 164 161 159 156 150 144 145 142 136 132 127 123 119 118 119 118 115 112 109 107 103 100 94 88 84 79 78 81 81 80 81 84 83 83 86 90 93 96 101 103 100 98 97 97 96 95 95 94 94 92 90 90 88 89 88 85 83 81 79 76 72 70 68 65 63 61 57 52 48 44
200 200 199 193 187 188 190 188 187 184 183 182 181 179 174 168 163 163 162 152 148 148 144 139 136 131 125 120 120 122 122 118 113 110 108 103 102 98 92 91 86 83 83 79 74 77 84 85 84 86 89 92 95 101 103 100 98 98 97 95 96 96 94 92 91 90 89 87 86 87 86 84 81 78 74 69 67 65 63 61 59 54 49 44 41
203 201 198 193 188 189 192 193 191 188 186 185 183 180 175 172 167 167 165 155 153 151 146 144 141 138 131 124 120 121 123 120 114 109 107 103 102 105 106 107 103 98 91 78 69 72 88 91 88 90 90 89 89 91 97 101 103 101 99 97 96 96 94 90 88 87 87 86 85 84 82 79 75 72 67 63 59 58 58 57 55 51 46 42 40
206 202 197 194 192 190 192 195 195 193 190 187 184 180 176 175 172 170 167 160 160 159 152 149 145 143 139 131 123 122 126 126 120 112 111 107 101 105 114 125 128 119 113 103 95 91 96 96 94 95 93 88 82 79 84 94 101 99 96 95 93 94 93 90 88 86 84 84 82 80 78 74 70 66 62 57 52 52 52 50 48 46 44 41 39
207 204 199 197 196 192 192 195 197 196 192 188 183 180 178 177 176 173 169 165 166 166 160 154 148 144 138 135 131 127 132 138 137 127 124 119 111 119 127 137 146 138 138 143 146 139 119 106 104 103 98 90 80 71 75 85 93 94 93 93 92 91 91 91 90 87 84 82 80 78 74 66 59 54 54 52 48 47 47 46 43 39 38 37 36
207 205 201 200 199 195 192 193 197 198 195 190 184 180 179 179 179 179 176 172 171 172 171 163 153 143 133 135 138 136 138 139 147 145 140 138 138 147 154 152 151 154 153 152 164 171 156 128 118 115 110 102 86 69 70 79 85 89 92 95 91 89 89 91 91 87 84 83 81 76 67 58 51 47 46 44 40 39 38 37 34 30 31 32 31
209 206 204 204 203 198 194 193 195 198 197 192 187 183 181 182 183 184 184 180 177 179 181 176 164 149 136 137 141 143 144 141 150 157 154 148 145 156 165 160 157 165 165 156 167 176 169 148 133 131 126 115 101 88 83 79 75 74 81 89 88 86 87 88 89 84 82 81 78 71 63 54 48 45 42 39 34 30 28 27 25 25 29 32 31
209 208 205 205 205 202 198 196 195 196 197 194 190 188 185 186 187 188 190 187 184 186 187 184 173 157 142 138 139 143 149 150 156 165 163 153 147 156 159 160 165 177 182 170 170 179 175 161 148 144 133 122 114 102 93 76 60 55 58 68 77 79 83 85 84 80 77 75 70 64 59 51 43 40 37 33 29 26 26 30 32 33 34 36 36
209 209 207 206 207 206 203 200 198 197 198 196 193 192 191 191 192 192 193 191 191 192 192 189 179 165 151 143 140 143 147 156 171 175 168 159 155 161 165 169 174 178 185 181 181 186 181 171 162 155 141 130 125 109 92 66 44 37 37 42 56 71 78 78 77 74 68 64 60 57 55 49 40 36 34 33 31 31 35 41 44 45 42 40 40
209 210 209 209 209 208 207 204 202 200 200 199 196 196 196 196 196 196 196 196 197 198 198 196 188 176 164 157 155 155 157 163 178 182 172 165 163 167 171 174 176 174 183 190 188 188 186 181 173 167 156 141 136 123 94 54 35 24 24 35 52 69 72 69 68 68 62 54 52 55 55 50 45 41 38 36 35 38 44 48 50 50 49 44 41
207 209 209 211 211 212 211 208 206 204 203 203 201 200 200 200 200 200 200 201 202 201 201 201 197 189 179 176 176 175 174 173 177 182 176 169 169 169 170 178 181 177 187 194 190 187 187 187 183 181 178 169 157 140 82 34 29 23 33 55 69 75 73 64 62 62 58 53 52 56 57 53 50 47 43 42 41 45 51 52 52 51 49 44 37
206 207 208 211 213 214 214 212 209 208 207 206 204 204 205 205 205 205 205 207 210 209 204 202 199 194 190 188 185 181 178 174 173 177 178 175 178 176 176 187 190 183 191 193 187 184 186 188 189 191 192 193 189 164 46 23 34 32 45 68 80 87 79 62 61 64 60 59 57 55 55 52 47 42 42 43 43 47 53 57 58 55 50 43 36
211 210 209 209 212 214 215 214 211 210 210 210 207 205 206 208 209 208 209 213 216 216 209 202 200 195 191 189 183 180 178 173 174 179 181 181 182 184 183 188 186 183 189 187 183 182 180 182 187 192 194 196 197 176 30 37 55 43 51 64 71 80 67 45 56 66 62 65 61 53 50 47 40 34 34 35 35 40 49 58 58 56 52 48 44
216 214 211 209 210 214 215 215 214 212 211 213 210 207 206 209 211 209 211 214 215 217 211 203 200 194 188 184 180 181 179 175 178 184 185 182 179 180 180 180 173 168 171 176 186 189 182 180 183 187 192 196 196 193 294 70 67 53 61 66 65 66 40 31 49 62 67 67 57 50 47 44 40 31 26 25 23 24 34 48 54 55 54 52 50
219 217 215 212 212 214 216 216 216 213 212 213 212 209 208 210 213 213 212 213 213 214 211 205 202 193 183 178 178 182 180 177 183 188 188 187 181 176 178 178 171 163 165 173 187 195 191 184 184 187 192 198 196 194 211 109 63 52 65 66 57 48 28 29 36 42 67 71 51 41 38 42 47 40 32 23 14 11 21 39 47 51 52 51 51
221 220 219 217 216 216 217 217 217 216 213 213 214 212 211 212 216 218 217 216 216 215 210 206 203 193 183 182 183 185 182 181 188 189 189 191 187 182 180 182 179 172 169 172 182 193 194 190 190 192 196 200 201 203 214 221 40 45 59 51 45 42 31 28 22 17 35 49 46 41 35 40 49 45 41 29 18 15 21 35 43 45 50 52 56
223 222 221 220 218 218 219 219 219 218 215 214 216 214 213 214 217 220 220 219 220 220 212 205 204 199 193 192 193 193 190 189 192 191 190 191 185 182 184 184 181 173 166 171 181 188 193 194 195 199 203 208 211 215 228 249 287 25 44 35 33 37 36 29 20 18 12 9 28 37 37 50 57 47 44 42 41 39 34 39 43 47 53 54 61
225 224 222 221 220 220 221 221 220 220 217 214 216 217 216 217 218 221 221 219 219 221 216 208 205 205 204 202 202 201 199 198 197 195 193 192 184 181 184 184 183 179 172 181 189 188 192 197 200 205 212 219 223 226 238 252 253 244 308 21 30 26 29 25 24 34 23 6 11 17 27 48 55 48 51 52 48 44 42 46 49 50 50 49 59
225 225 223 223 223 223 224 224 223 222 220 215 215 218 218 218 219 221 222 219 218 219 217 212 208 208 209 208 206 206 206 205 203 200 196 195 192 186 185 185 187 188 189 195 196 193 194 199 206 213 220 226 230 233 241 245 238 230 270 320 7 12 20 30 31 34 25 12 8 5 14 30 35 38 48 49 47 46 46 49 47 41 31 26 33
225 225 223 224 225 225 226 227 227 226 224 218 215 217 219 220 221 222 223 220 219 219 218 214 210 210 212 211 208 208 211 210 208 206 201 201 201 197 192 192 196 195 193 198 197 196 198 203 212 219 224 228 230 234 235 232 229 227 250 274 281 328 5 33 31 26 22 9 3 2 10 19 22 25 33 41 49 54 50 43 39 32 21 10 4